Regional Weather Roundup
Issued by NWS

Home | Current Version | Previous Version | Text Only | Print | Product List | Glossary Off
Versions: 1 2 3 4 5 6 7 8 9 10 11 12 13 14 15 16 17 18 19 20 21 22 23 24 25 26 27 28 29 30 31 32 33 34 35 36 37 38 39 40 41 42 43 44 45 46 47 48 49 50

000
ASUS43 KMPX 261610
RWRMN
WEATHER ROUNDUP FOR MINNESOTA
NATIONAL WEATHER SERVICE TWIN CITIES/CHANHASSEN MN
1000 AM CST FRI DEC 26 2014


NOTE: "FAIR" INDICATES FEW OR NO CLOUDS BELOW 12,000 FEET WITH NO
SIGNIFICANT WEATHER AND/OR OBSTRUCTIONS TO VISIBILITY. N/A MEANS
CURRENT SKY AND/OR WEATHER CONDITIONS ARE NOT AVAILABLE.

MNZ060>063-068>070-261700-
   Twin Cities Metro

CITY           SKY/WX    TMP DP  RH WIND       PRES   REMARKS
TWIN CITIES    FLURRIES  31  27  85 N12       30.01R WCI  22
ST PAUL        CLOUDY    32  28  85 N12       30.03R WCI  23
CRYSTAL        CLOUDY    31  27  85 N13       30.02R WCI  21
LAKEVILLE      CLOUDY    30  28  93 N9        29.99R FOG     WCI  22
EDEN PRAIRIE   CLOUDY    31  27  85 N10       30.00R WCI  22
SOUTH ST PAUL  CLOUDY    32  30  90 N10       30.01R WCI  24
LAKE ELMO      CLOUDY    32  30  93 N9        30.02R WCI  24
$$
MNZ001>005-007-008-013>017-022>024-027-028-261700-
   Northwest Minnesota

CITY           SKY/WX    TMP DP  RH WIND       PRES   REMARKS
BEMIDJI        LGT SNOW  23  19  86 N7        30.09S WCI  15
HALLOCK        CLOUDY    19  18  93 NW8       30.18R WCI   9
ROSEAU         FLURRIES  21  18  86 NW7       30.14R WCI  13
WARROAD        FLURRIES  19  16  86 NW7       30.14R WCI  10
THIEF RVR FALL CLOUDY    21  19  93 NW12      30.15R WCI   9
CROOKSTON      LGT SNOW  21  19  93 N7        30.18R WCI  13
FOSSTON        CLOUDY    21  18  86 N10       30.13R WCI  10
DETROIT LAKES  CLOUDY    25  21  86 N8        30.12R WCI  16
MOORHEAD       CLOUDY    25  23  93 N12       30.17R WCI  14
PARK RAPIDS    CLOUDY    25  18  74 N6        30.08R WCI  18
MAHNOMEN       CLOUDY    23  21  91 N13       30.12R WCI  11
$$
MNZ006-009>011-018-025>026-261700-
   North Central Minnesota

CITY           SKY/WX    TMP DP  RH WIND       PRES   REMARKS
BAUDETTE       CLOUDY    21  17  84 NW13      30.11R WCI   9
FLAG ISLAND    CLOUDY    19  16  86 NW10      30.12R WCI   8
INTL FALLS     CLOUDY    24  19  81 NW10      30.08R WCI  14
WASKISH        CLOUDY    21  18  86 CALM      30.12R FOG
BIG FORK       CLOUDY    23  19  86 NW6       30.09R WCI  16
LONGVILLE      PTSUNNY   25  19  80 NW5       30.08R WCI  19
GRAND RAPIDS   CLOUDY    25  21  86 NW10      30.05R WCI  15
CRANE LAKE     CLOUDY    25  21  86 NW5       30.08R WCI  19
ORR            CLOUDY    25  21  86 NW7       30.04R WCI  17
COOK           CLOUDY    25  23  93 NW7       30.05R FOG     WCI  17
WALKER         CLOUDY    23  19  83 N6        30.09R WCI  15
$$
MNZ012-019>021-037-261700-
   Northeast Minnesota

CITY           SKY/WX    TMP DP  RH WIND       PRES   REMARKS
DULUTH         LGT SNOW  28  22  78 N7        30.02R WCI  21
ELY            CLOUDY    27  25  93 NW3       30.02R
HIBBING        CLOUDY    27  22  81 N9        30.04R WCI  18
EVELETH        CLOUDY    28  25  86 N3        30.04R
DULUTH HARBOR  MIX PCPN  32  27  80 N7        30.07R WCI  26
TWO HARBORS    CLOUDY    30  25  80 CALM      30.02R
SILVER BAY     CLOUDY    30  23  74 N5        30.02R WCI  25
GRAND MARAIS     N/A     32  23  69 NW6       30.04R WCI  26
G MARAIS ARPRT CLOUDY    25  19  80 CALM      29.99R
$$
MNZ029>031-032-039>041-046>048-054>057-064-261700-
   West Central Minnesota

CITY           SKY/WX    TMP DP  RH WIND       PRES   REMARKS
FERGUS FALLS   CLOUDY    23  21  93 N12       30.15R WCI  12
WHEATON        CLOUDY    21  19  93 N13       30.16R FOG     WCI   9
MORRIS         MOSUNNY   27  25  93 N14       30.09R FOG     WCI  15
ALEXANDRIA     CLOUDY    26  21  81 N13       30.07R WCI  15
ELBOW LAKE     CLOUDY    23  22  96 N14       30.10R WCI  11
WADENA         CLOUDY    25  19  80 N9        30.08R WCI  15
GLENWOOD       CLOUDY    27  23  86 N10       30.07R WCI  17
APPLETON       CLOUDY    28  25  86 N18       30.09R WCI  16
BENSON         MIX PCPN  28  23  80 N10       30.08R WCI  19
ORTONVILLE     CLOUDY    25  21  86 N16       30.10R WCI  12
MADISON          N/A     28  27  93 N16       30.09R WCI  17
WILLMAR        FAIR      28  25  86 N9        30.07R WCI  20
$$
MNZ033>034-036-042>043-049>051-058-059-261700-
   Central Minnesota

CITY           SKY/WX    TMP DP  RH WIND       PRES   REMARKS
ST CLOUD       LGT SNOW  31  25  78 N8        30.05R WCI  23
SAUK CENTRE    PTSUNNY   25  22  89 N6        30.06S WCI  18
PAYNESVILLE    LGT SNOW  25  24  93 NW6       30.06S WCI  18
AITKIN         CLOUDY    30  25  80 N8        30.05R WCI  23
PINE RIVER     CLOUDY    27  21  80 N10       30.11R WCI  17
BRAINERD       CLOUDY    27  22  81 N8        30.07R WCI  19
STAPLES        CLOUDY    25  21  86 N10       30.07R WCI  15
LONG PRAIRIE   CLOUDY    27  23  86 N10       30.06R WCI  17
LITTLE FALLS   PTSUNNY   28  23  80 N3        30.07R
LITCHFIELD     CLOUDY    28  28 100 N10       30.04S WCI  19
BUFFALO        CLOUDY    29  26  87 N12       30.04S WCI  19
MAPLE LAKE     CLOUDY    30  28  90 N9        30.05R WCI  22
$$
MNZ037-044-045-052-053-261700-
   East Central Minnesota

CITY           SKY/WX    TMP DP  RH WIND       PRES   REMARKS
PRINCETON      CLOUDY    30  27  86 N7        30.05R WCI  23
MORA           CLOUDY    28  25  86 VRB3      30.06R
CAMBRIDGE      FLURRIES  30  23  74 NW3       30.03R
RUSH CITY      CLOUDY    29  26  91 N8        30.04R WCI  21
MOOSE LAKE     LGT SNOW  30  25  80 N5        30.03R WCI  25
HINCKLEY       CLOUDY    30  28  93 CALM      30.04R
CLOQUET        LGT SNOW  28  23  80 N5        30.03R WCI  23
MCGREGOR       CLOUDY    28  27  93 N10       30.05R WCI  19
$$
MNZ071>073-080-081-089-090-097-098-261700-
   Southwest Minnesota

CITY           SKY/WX    TMP DP  RH WIND       PRES   REMARKS
MONTEVIDEO     CLOUDY    27  27 100 N10       30.09R WCI  17
GRANITE FALLS  CLOUDY    27  25  91 NW10      30.08R WCI  18
CANBY          CLOUDY    26  24  92 N14       30.09S WCI  14
MARSHALL       CLOUDY    27  21  80 N15       30.07R WCI  15
REDWOOD FALLS  CLOUDY    29  25  85 N10G20    30.04R WCI  20
OLIVIA         CLOUDY    28  27  93 N10       30.05R WCI  19
PIPESTONE      CLOUDY    25  23  93 NE13G22   30.03R WCI  13
WINDOM         CLOUDY    28  28 100 N15       30.02R WCI  17
WORTHINGTON    CLOUDY    27 -20  12 N14G20    30.03R WCI  15
JACKSON        CLOUDY    30  28  93 VRB15     30.01R WCI  19
TRACY          CLOUDY    28  27  95 N14       30.04R WCI  17
SLAYTON        CLOUDY    26  25  97 N14       30.03R FOG     WCI  14
$$
MNZ065>067-074>077-082>085-091>093-261700-
   South Central Minnesota

CITY           SKY/WX    TMP DP  RH WIND       PRES   REMARKS
MANKATO        CLOUDY    30  27  86 N15       30.00R WCI  19
NEW ULM        CLOUDY    28  28 100 N9        30.03R WCI  20
ST JAMES       CLOUDY    32  28  86 N15       30.02R WCI  22
FAIRMONT       CLOUDY    30  27  86 N17       29.99R WCI  18
GLENCOE        CLOUDY    31  29  92 N13G18    30.01R WCI  21
FARIBAULT      CLOUDY    34  30  86 N7        29.99R FOG     WCI  28
OWATONNA       CLOUDY    34  30  86 N12       29.97R FOG     WCI  25
WASECA         CLOUDY    32  30  93 N10       29.99R FOG     WCI  24
ALBERT LEA     CLOUDY    34  34 100 N12       29.96R FOG     WCI  25
$$
MNZ078>079-086>088-094>096-261700-
   Southeast Minnesota

CITY           SKY/WX    TMP DP  RH WIND       PRES   REMARKS
ROCHESTER      CLOUDY    31  30  96 N9        29.94R FOG     WCI  23
RED WING       CLOUDY    34  30  86 N5        29.98R WCI  30
STANTON        CLOUDY    33  31  90 N12       29.97R FOG     WCI  25
DODGE CENTER   CLOUDY    32  32 100 N12       29.94R FOG     WCI  23
WINONA         PTSUNNY   32  32 100 CALM      29.97R FOG
AUSTIN         CLOUDY    30  30 100 N9        29.94R FOG     WCI  22
PRESTON        SUNNY     29  29  97 CALM      29.94R
$$
ABBREVIATIONS USED IN REMARKS
   TC - TEMPERATURES IN CELSIUS
  WCI - WIND CHILL INDEX
   HX - HEAT INDEX
  VSB - VISIBILITY
$$



USA.gov is the U.S. government's official web portal to all federal, state and local government web resources and services.